sat.trackr.live / text

‹ back to catalog

STARLINK-32439

NORAD 61665 · 2024-193E

PAYLOAD ACTIVE UNKNOWN

§ Identity

Operator
Country
US
Launch date
2024-10-26
Launch site
AFETR
Launch vehicle
Mass (kg)
RCS (m²)

Purposes: comms

External: N2YO · Heavens-Above · Gunter

§ Orbital elements

Epoch: 2026-05-25T02:50:50.368128Z

Period
94.11 min
Inclination
53.1611°
Eccentricity
0.0001391
Mean motion
15.30192037 rev/d
Perigee alt
474.3 km
Apogee alt
476.2 km
Semi-major
6,853.4 km
B*
1.0207e-7
RAAN
96.3261°
Arg perigee
92.2683°
Mean anomaly
267.8477°
Rev number
8,822

§ Raw data

STARLINK-324391 61665U 24193E   26145.11863852 -.00000356  00000+0  10207-6 0  99952 61665  53.1611  96.3261 0001391  92.2683 267.8477 15.30192037 88226

JSON: /api/v1/satellites/61665 · /tle

For live sub-satellite position, see the globe view (requires WebGL).

§ Visibility from observer

Set your observer location to see the next 7 days of passes ≥ 10°. The values pass through the URL so the page stays shareable.

No JS? Fill the form by hand. The geolocation button needs JavaScript.